Regional Weather Roundup
Issued by NWS

Home | Current Version | Previous Version | Text Only | Print | Product List | Glossary On
Versions: 1 2 3 4 5 6 7 8 9 10 11 12 13 14 15 16 17 18 19 20 21 22 23 24 25 26 27 28 29 30 31 32 33 34 35 36 37 38 39 40 41 42 43 44 45 46 47 48 49 50
000
ASUS44 KOUN 030910
RWROK

WEATHER ROUNDUP FOR OKLAHOMA
NATIONAL WEATHER SERVICE NORMAN OK
300 AM CST TUE MAR 03 2015

NOTE: "FAIR" INDICATES FEW OR NO CLOUDS BELOW 12,000 FEET WITH NO
      SIGNIFICANT WEATHER AND/OR OBSTRUCTIONS TO VISIBILITY.

OKZ001>007-009>012-014-015-017-031000-
NORTHWEST OKLAHOMA AND THE PANHANDLE

CITY           SKY/WX    TMP DP  RH WIND       PRES   REMARKS
GAGE           MOCLDY    37  33  85 SW18G26   29.80F WCI  27
GUYMON         MOCLDY    43  35  73 SW21      29.71
ENID/WOODRING  CLOUDY    37  36  93 S21G29    29.85F WCI  27
$$

OKZ016-021>023-033>039-044-045-031000-
SOUTHWEST OKLAHOMA

CITY           SKY/WX    TMP DP  RH WIND       PRES   REMARKS
LAWTON/REGL    CLOUDY    37  35  92 S10       30.00F FOG     WCI  30
FREDERICK      CLOUDY    37  34  89 S14       29.96F FOG     WCI  28
CLINTON        CLOUDY    36  34  92 S26G33    29.89F FOG     WCI  24
HOBART         CLOUDY    36  34  92 S17       29.94F FOG     WCI  26
ALTUS AFB      CLOUDY    37  37  99 S13       29.96F WCI  29
$$

OKZ018>020-024>031-031000-
CENTRAL OKLAHOMA

CITY           SKY/WX    TMP DP  RH WIND       PRES   REMARKS
OKLAHOMA CITY  CLOUDY    39  36  89 S23G31    29.93F FOG     WCI  28
OKC/WILEY POST CLOUDY    39  37  92 S18G25    29.95F FOG     WCI  30
OKC/TINKER AFB CLOUDY    38  37  96 S20G29    29.93F WCI  27
STILLWATER     CLOUDY    39  36  89 S16       29.92F WCI  30
GUTHRIE        CLOUDY    39  37  92 S12G22    29.93F FOG     WCI  32
$$

OKZ008-013-054>072-031000-
NORTHEAST OKLAHOMA

CITY           SKY/WX    TMP DP  RH WIND       PRES   REMARKS
TULSA          DRZL/FOG  38  38 100 S13G21    29.97F VSB 3/4 WCI  30
TULSA/JONES    CLOUDY    38  37  97 S9        29.98F FOG     WCI  31
PONCA CITY     CLOUDY    38  35  89 S10       29.88F FOG     WCI  31
BARTLESVILLE   CLOUDY    36  35  96 S13       29.94F FOG     WCI  27
MUSKOGEE       CLOUDY    36  34  92 S10       30.02F FOG     WCI  28
$$

OKZ032-040>043-046>053-073>077-031000-
SOUTH CENTRAL/SOUTHEAST OKLAHOMA

CITY           SKY/WX    TMP DP  RH WIND       PRES   REMARKS
ARDMORE/DWNTWN FOG       37  37 100 S7        30.04F VSB 3/4 WCI  32
MCALESTER      CLOUDY    38  37  97 S14       30.02F WCI  30
$$




USA.gov is the U.S. government's official web portal to all federal, state and local government web resources and services.